.
WxDataArchive / Data Records for 2015-01-11
2015-01-10 January 2015 2015-01-12

Data Records for Sunday, 11 January 2015

Time	Temp	Chill	HIndex	Humid	Dewpt	 Wind 	HiWind	WindDir	Rain 	Barom
-----	----	-----	------	-----	-----	------	------	-------	-----	-----
00:00	20.8	20.8	20.8	58	8.4	1	3	248	0.00	30.389 
00:05	21.0	21.0	21.0	58	8.6	0	2	248	0.00	30.389 
00:10	21.1	21.1	21.1	58	8.7	0	1	248	0.00	30.389 
00:15	21.3	21.3	21.3	57	8.5	0	1	248	0.00	30.397 
00:20	21.3	21.3	21.3	57	8.5	0	1	248	0.00	30.397 
00:25	21.4	21.4	21.4	57	8.6	0	1	248	0.00	30.397 
00:30	21.6	21.6	21.6	57	8.8	0	1	248	0.00	30.390 
00:35	21.8	21.8	21.8	56	8.5	0	2	248	0.00	30.390 
00:40	21.9	21.9	21.9	55	8.2	0	3	248	0.00	30.390 
00:45	22.1	22.1	22.1	55	8.4	0	3	248	0.00	30.386 
00:50	22.2	22.2	22.2	54	8.1	0	3	248	0.00	30.386 
00:55	22.4	22.4	22.4	54	8.3	0	3	248	0.00	30.386 
01:00	22.4	22.4	22.4	54	8.3	0	3	248	0.00	30.386 
01:05	22.5	22.5	22.5	53	8.0	1	4	248	0.00	30.386 
01:10	22.7	22.7	22.7	53	8.2	0	2	248	0.00	30.386 
01:15	22.7	22.7	22.7	53	8.2	0	1	248	0.00	30.381 
01:20	22.9	22.9	22.9	53	8.4	1	3	248	0.00	30.381 
01:25	22.9	22.9	22.9	53	8.4	0	5	248	0.00	30.381 
01:30	22.9	22.9	22.9	53	8.4	0	3	248	0.00	30.381 
01:35	22.9	22.9	22.9	53	8.4	1	4	248	0.00	30.381 
01:40	22.9	22.9	22.9	53	8.4	0	2	248	0.00	30.381 
01:45	22.9	22.9	22.9	53	8.4	0	3	248	0.00	30.381 
01:50	22.9	22.9	22.9	54	8.8	0	1	248	0.00	30.381 
01:55	22.9	22.9	22.9	53	8.4	0	2	248	0.00	30.381 
02:00	23.0	23.0	23.0	54	8.9	0	4	248	0.00	30.382 
02:05	23.0	23.0	23.0	54	8.9	0	2	248	0.00	30.382 
02:10	23.0	23.0	23.0	54	8.9	0	2	248	0.00	30.382 
02:15	23.0	23.0	23.0	54	8.9	0	2	248	0.00	30.381 
02:20	23.0	23.0	23.0	54	8.9	0	2	248	0.00	30.381 
02:25	23.0	23.0	23.0	54	8.9	0	2	248	0.00	30.381 
02:30	23.0	23.0	23.0	54	8.9	0	1	248	0.00	30.382 
02:35	23.0	23.0	23.0	54	8.9	0	2	248	0.00	30.382 
02:40	23.0	23.0	23.0	55	9.3	0	1	248	0.00	30.382 
02:45	23.0	23.0	23.0	55	9.3	0	2	248	0.00	30.382 
02:50	23.0	23.0	23.0	55	9.3	0	2	248	0.00	30.382 
02:55	23.0	23.0	23.0	55	9.3	0	1	248	0.00	30.382 
03:00	23.0	23.0	23.0	55	9.3	0	1	248	0.00	30.383 
03:05	23.0	23.0	23.0	56	9.7	0	1	248	0.00	30.383 
03:10	23.0	23.0	23.0	56	9.7	0	2	248	0.00	30.383 
03:15	23.0	23.0	23.0	56	9.7	0	2	248	0.00	30.384 
03:20	23.0	23.0	23.0	56	9.7	0	2	248	0.00	30.384 
03:25	23.0	23.0	23.0	56	9.7	0	2	248	0.00	30.384 
03:30	23.0	23.0	23.0	57	10.1	0	1	248	0.00	30.383 
03:35	23.0	23.0	23.0	57	10.1	0	1	248	0.00	30.383 
03:40	23.0	23.0	23.0	57	10.1	0	1	248	0.00	30.383 
03:45	23.0	23.0	23.0	57	10.1	0	1	248	0.00	30.382 
03:50	23.0	23.0	23.0	57	10.1	0	1	248	0.00	30.382 
03:55	23.2	23.2	23.2	57	10.3	0	2	248	0.00	30.382 
04:00	23.2	23.2	23.2	58	10.6	0	1	248	0.00	30.380 
04:05	23.2	23.2	23.2	58	10.6	0	1	248	0.00	30.380 
04:10	23.2	23.2	23.2	58	10.6	0	1	248	0.00	30.380 
04:15	23.2	23.2	23.2	58	10.6	0	2	248	0.00	30.374 
04:20	23.2	23.2	23.2	58	10.6	0	1	248	0.00	30.374 
04:25	23.2	23.2	23.2	58	10.6	0	3	248	0.00	30.374 
04:30	23.3	23.3	23.3	58	10.7	0	2	248	0.00	30.375 
04:35	23.3	23.3	23.3	58	10.7	0	2	248	0.00	30.375 
04:40	23.3	23.3	23.3	58	10.7	0	1	248	0.00	30.375 
04:45	23.5	23.5	23.5	58	10.9	0	1	248	0.00	30.368 
04:50	23.5	23.5	23.5	58	10.9	0	1	248	0.00	30.368 
04:55	23.5	23.5	23.5	58	10.9	0	1	248	0.00	30.368 
05:00	23.5	23.5	23.5	58	10.9	0	2	248	0.00	30.366 
05:05	23.5	23.5	23.5	58	10.9	0	1	248	0.00	30.366 
05:10	23.5	23.5	23.5	58	10.9	0	2	248	0.00	30.366 
05:15	23.6	23.6	23.6	59	11.4	0	1	248	0.00	30.369 
05:20	23.6	23.6	23.6	58	11.0	0	2	248	0.00	30.369 
05:25	23.6	23.6	23.6	59	11.4	0	1	135	0.00	30.369 
05:30	23.6	23.6	23.6	59	11.4	0	2	248	0.00	30.374 
05:35	23.8	23.8	23.8	59	11.6	0	1	248	0.00	30.374 
05:40	23.8	23.8	23.8	59	11.6	0	2	248	0.00	30.374 
05:45	23.8	23.8	23.8	59	11.6	0	2	248	0.00	30.376 
05:50	23.8	23.8	23.8	59	11.6	0	1	248	0.00	30.376 
05:55	23.9	23.9	23.9	59	11.7	0	1	248	0.00	30.376 
06:00	23.9	23.9	23.9	58	11.3	0	2	248	0.00	30.375 
06:05	24.1	24.1	24.1	59	11.9	0	1	248	0.00	30.375 
06:10	24.1	24.1	24.1	58	11.5	0	3	248	0.00	30.375 
06:15	24.1	24.1	24.1	58	11.5	0	2	248	0.00	30.375 
06:20	24.1	24.1	24.1	58	11.5	0	1	248	0.00	30.375 
06:25	24.2	24.2	24.2	58	11.6	0	1	248	0.00	30.375 
06:30	24.2	24.2	24.2	58	11.6	0	1	248	0.00	30.373 
06:35	24.2	24.2	24.2	58	11.6	0	2	248	0.00	30.373 
06:40	24.2	24.2	24.2	58	11.6	0	2	248	0.00	30.373 
06:45	24.4	24.4	24.4	58	11.8	0	2	248	0.00	30.367 
06:50	24.4	24.4	24.4	58	11.8	0	3	248	0.00	30.367 
06:55	24.4	24.4	24.4	58	11.8	0	1	248	0.00	30.367 
07:00	24.4	24.4	24.4	58	11.8	0	2	248	0.00	30.363 
07:05	24.5	24.5	24.5	58	11.9	0	1	248	0.00	30.363 
07:10	24.5	24.5	24.5	59	12.3	0	1	248	0.00	30.363 
07:15	24.5	24.5	24.5	58	11.9	0	2	248	0.00	30.356 
07:20	24.5	24.5	24.5	58	11.9	0	2	248	0.00	30.356 
07:25	24.7	24.7	24.7	58	12.1	0	2	248	0.00	30.356 
07:30	24.7	24.7	24.7	58	12.1	0	2	248	0.00	30.360 
07:35	24.7	24.7	24.7	58	12.1	0	2	248	0.00	30.360 
07:40	24.7	24.7	24.7	58	12.1	0	1	248	0.00	30.360 
07:45	24.7	24.7	24.7	58	12.1	0	2	248	0.00	30.359 
07:50	24.7	24.7	24.7	58	12.1	0	1	248	0.00	30.359 
07:55	24.8	24.8	24.8	58	12.1	0	4	292	0.00	30.359 
08:00	24.8	24.8	24.8	58	12.1	0	2	248	0.00	30.363 
08:05	24.8	24.8	24.8	58	12.1	0	3	270	0.00	30.363 
08:10	25.0	25.0	25.0	58	12.3	1	3	270	0.00	30.363 
08:15	25.1	25.1	25.1	57	12.0	1	2	270	0.00	30.364 
08:20	25.1	25.1	25.1	57	12.0	1	2	270	0.00	30.364 
08:25	25.3	25.3	25.3	58	12.6	0	3	248	0.00	30.364 
08:30	25.3	25.3	25.3	57	12.2	0	2	248	0.00	30.358 
08:35	25.4	25.4	25.4	57	12.3	0	2	248	0.00	30.358 
08:40	25.4	25.4	25.4	57	12.3	0	1	248	0.00	30.358 
08:45	25.6	25.6	25.6	57	12.5	0	1	248	0.00	30.359 
08:50	25.6	25.6	25.6	57	12.5	0	1	248	0.00	30.359 
08:55	25.7	25.7	25.7	57	12.6	0	1	248	0.00	30.359 
09:00	25.8	25.8	25.8	57	12.7	0	2	248	0.00	30.370 
09:05	25.8	25.8	25.8	56	12.3	0	3	248	0.00	30.370 
09:10	26.0	26.0	26.0	57	12.9	0	3	248	0.00	30.370 
09:15	26.0	26.0	26.0	57	12.9	0	2	248	0.00	30.373 
09:20	26.1	26.1	26.1	57	13.0	0	1	248	0.00	30.373 
09:25	26.3	26.3	26.3	57	13.2	0	2	248	0.00	30.373 
09:30	26.4	26.4	26.4	57	13.3	0	2	248	0.00	30.375 
09:35	26.4	26.4	26.4	56	12.9	0	2	248	0.00	30.375 
09:40	26.6	26.6	26.6	56	13.0	0	1	248	0.00	30.375 
09:45	26.7	26.7	26.7	57	13.5	0	1	248	0.00	30.374 
09:50	26.7	26.7	26.7	57	13.5	0	1	248	0.00	30.374 
09:55	26.9	26.9	26.9	57	13.7	0	1	248	0.00	30.374 
10:00	27.0	27.0	27.0	56	13.4	0	1	248	0.00	30.375 
10:05	27.2	27.2	27.2	56	13.6	0	2	248	0.00	30.375 
10:10	27.5	27.5	27.5	55	13.5	0	2	248	0.00	30.375 
10:15	27.8	27.8	27.8	54	13.3	0	3	248	0.00	30.376 
10:20	27.9	27.9	27.9	54	13.4	1	3	292	0.00	30.376 
10:25	27.9	27.9	27.9	54	13.4	0	2	292	0.00	30.376 
10:30	27.9	27.9	27.9	54	13.4	1	3	270	0.00	30.376 
10:35	28.1	28.1	28.1	54	13.6	1	2	248	0.00	30.376 
10:40	28.2	28.2	28.2	54	13.7	1	4	248	0.00	30.376 
10:45	28.4	28.4	28.4	54	13.9	0	4	112	0.00	30.373 
10:50	28.5	28.5	28.5	53	13.6	1	4	270	0.00	30.373 
10:55	28.7	28.7	28.7	53	13.8	1	3	248	0.00	30.373 
11:00	28.8	28.8	28.8	54	14.3	0	3	248	0.00	30.359 
11:05	29.0	29.0	29.0	52	13.6	1	4	248	0.00	30.359 
11:10	29.0	29.0	29.0	54	14.5	0	3	248	0.00	30.359 
11:15	29.0	29.0	29.0	53	14.0	1	4	248	0.00	30.352 
11:20	29.1	29.1	29.1	53	14.1	0	2	225	0.00	30.352 
11:25	29.3	29.3	29.3	53	14.3	1	3	225	0.00	30.352 
11:30	29.4	29.4	29.4	52	14.0	0	3	225	0.00	30.337 
11:35	29.7	29.7	29.7	53	14.7	0	3	0	0.00	30.337 
11:40	30.0	30.0	30.0	52	14.5	0	3	292	0.00	30.337 
11:45	30.1	30.1	30.1	52	14.6	1	4	248	0.00	30.336 
11:50	30.1	30.1	30.1	50	13.7	1	3	248	0.00	30.336 
11:55	30.1	30.1	30.1	51	14.2	1	3	270	0.00	30.336 
12:00	30.1	30.1	30.1	51	14.2	1	3	248	0.00	30.326 
12:05	30.1	30.1	30.1	52	14.6	0	2	248	0.00	30.326 
12:10	30.4	30.4	30.4	51	14.5	1	4	248	0.00	30.326 
12:15	30.6	30.6	30.6	51	14.6	0	2	270	0.00	30.318 
12:20	30.6	30.6	30.6	51	14.6	1	3	202	0.00	30.318 
12:25	30.7	30.7	30.7	50	14.3	1	3	225	0.00	30.318 
12:30	30.7	30.7	30.7	51	14.7	1	3	315	0.00	30.306 
12:35	30.7	30.7	30.7	50	14.3	1	4	248	0.00	30.306 
12:40	30.9	30.9	30.9	50	14.5	2	6	248	0.00	30.306 
12:45	30.9	30.9	30.9	51	14.9	1	4	248	0.00	30.309 
12:50	30.9	30.9	30.9	51	14.9	1	4	248	0.00	30.309 
12:55	30.9	30.9	30.9	50	14.5	1	4	248	0.00	30.309 
13:00	30.9	30.9	30.9	50	14.5	1	4	248	0.00	30.308 
13:05	30.9	30.9	30.9	51	14.9	0	2	248	0.00	30.308 
13:10	31.0	31.0	31.0	51	15.0	1	4	248	0.00	30.308 
13:15	31.0	31.0	31.0	52	15.5	1	3	248	0.00	30.305 
13:20	31.0	31.0	31.0	51	15.0	1	4	248	0.00	30.305 
13:25	31.0	31.0	31.0	52	15.5	1	5	248	0.00	30.305 
13:30	31.2	31.2	31.2	52	15.6	0	3	248	0.00	30.303 
13:35	31.3	31.3	31.3	53	16.2	0	2	248	0.00	30.303 
13:40	31.3	31.3	31.3	52	15.7	0	2	248	0.00	30.303 
13:45	31.5	31.5	31.5	52	15.9	0	2	248	0.00	30.302 
13:50	31.6	31.6	31.6	51	15.6	0	2	248	0.00	30.302 
13:55	31.6	31.6	31.6	51	15.6	0	4	248	0.00	30.302 
14:00	31.6	31.6	31.6	50	15.1	0	3	248	0.00	30.300 
14:05	31.6	31.6	31.6	50	15.1	1	3	248	0.00	30.300 
14:10	31.8	31.8	31.8	51	15.8	0	2	248	0.00	30.300 
14:15	31.8	31.8	31.8	51	15.8	0	3	248	0.00	30.302 
14:20	31.8	31.8	31.8	51	15.8	0	3	248	0.01	30.302 
14:25	31.8	31.8	31.8	50	15.3	1	4	248	0.00	30.302 
14:30	31.8	31.8	31.8	50	15.3	1	4	248	0.00	30.306 
14:35	31.8	31.8	31.8	51	15.8	1	4	248	0.00	30.306 
14:40	31.8	31.8	31.8	51	15.8	1	5	248	0.00	30.306 
14:45	31.8	31.8	31.8	52	16.2	0	2	270	0.00	30.303 
14:50	31.9	31.9	31.9	52	16.3	0	2	248	0.00	30.303 
14:55	31.9	31.9	31.9	52	16.3	0	4	248	0.00	30.303 
15:00	31.8	31.8	31.8	52	16.2	1	4	270	0.00	30.304 
15:05	31.8	31.8	31.8	51	15.8	0	3	248	0.01	30.304 
15:10	31.8	31.8	31.8	52	16.2	0	2	248	0.00	30.304 
15:15	31.8	31.8	31.8	53	16.6	0	2	248	0.00	30.302 
15:20	31.8	31.8	31.8	53	16.6	0	5	248	0.00	30.302 
15:25	31.6	31.6	31.6	53	16.5	1	3	248	0.00	30.302 
15:30	31.6	31.6	31.6	52	16.0	1	3	248	0.00	30.304 
15:35	31.5	31.5	31.5	53	16.4	0	2	248	0.00	30.304 
15:40	31.5	31.5	31.5	53	16.4	0	1	248	0.00	30.304 
15:45	31.5	31.5	31.5	53	16.4	0	3	248	0.00	30.303 
15:50	31.5	31.5	31.5	53	16.4	0	2	248	0.00	30.303 
15:55	31.5	31.5	31.5	55	17.2	0	5	112	0.00	30.303 
16:00	31.2	31.2	31.2	57	17.8	0	2	248	0.00	30.304 
16:05	30.9	30.9	30.9	58	17.9	0	3	248	0.00	30.304 
16:10	30.7	30.7	30.7	59	18.1	1	5	248	0.00	30.304 
16:15	30.6	30.6	30.6	60	18.4	0	3	248	0.00	30.312 
16:20	30.4	30.4	30.4	60	18.2	0	3	270	0.00	30.312 
16:25	30.4	30.4	30.4	61	18.6	0	1	270	0.00	30.312 
16:30	30.4	30.4	30.4	62	19.0	0	1	270	0.00	30.311 
16:35	30.3	30.3	30.3	63	19.2	0	2	270	0.00	30.311 
16:40	30.3	30.3	30.3	63	19.2	0	2	270	0.00	30.311 
16:45	30.1	30.1	30.1	63	19.0	0	2	270	0.00	30.311 
16:50	30.1	30.1	30.1	64	19.4	0	2	270	0.00	30.311 
16:55	30.1	30.1	30.1	65	19.8	0	2	270	0.00	30.311 
17:00	30.0	30.0	30.0	67	20.4	0	1	270	0.00	30.318 
17:05	29.8	29.8	29.8	68	20.5	0	1	270	0.00	30.318 
17:10	29.7	29.7	29.7	69	20.8	0	3	270	0.00	30.318 
17:15	29.5	29.5	29.5	69	20.6	0	1	270	0.00	30.317 
17:20	29.5	29.5	29.5	70	20.9	0	0	---	0.00	30.317 
17:25	29.4	29.4	29.4	71	21.2	0	1	270	0.00	30.317 
17:30	29.4	29.4	29.4	71	21.2	0	1	270	0.00	30.319 
17:35	29.4	29.4	29.4	72	21.5	0	0	---	0.00	30.319 
17:40	29.4	29.4	29.4	72	21.5	0	1	270	0.00	30.319 
17:45	29.3	29.3	29.3	73	21.7	0	1	270	0.00	30.319 
17:50	29.3	29.3	29.3	73	21.7	0	1	270	0.00	30.319 
17:55	29.3	29.3	29.3	73	21.7	0	1	270	0.00	30.319 
18:00	29.3	29.3	29.3	74	22.1	0	1	270	0.00	30.320 
18:05	29.3	29.3	29.3	74	22.1	0	1	270	0.00	30.320 
18:10	29.3	29.3	29.3	75	22.4	0	1	270	0.00	30.320 
18:15	29.1	29.1	29.1	75	22.2	0	0	---	0.00	30.330 
18:20	29.1	29.1	29.1	76	22.5	0	1	270	0.00	30.330 
18:25	29.0	29.0	29.0	77	22.7	0	1	270	0.00	30.330 
18:30	29.0	29.0	29.0	78	23.0	0	1	270	0.00	30.334 
18:35	28.8	28.8	28.8	79	23.1	0	0	---	0.00	30.334 
18:40	28.8	28.8	28.8	80	23.4	0	1	270	0.00	30.334 
18:45	28.7	28.7	28.7	81	23.6	0	1	270	0.00	30.334 
18:50	28.5	28.5	28.5	83	24.0	0	1	270	0.00	30.334 
18:55	28.4	28.4	28.4	84	24.2	0	3	270	0.00	30.334 
19:00	28.4	28.4	28.4	84	24.2	0	0	---	0.00	30.333 
19:05	28.2	28.2	28.2	85	24.3	0	1	270	0.00	30.333 
19:10	28.2	28.2	28.2	85	24.3	0	0	---	0.00	30.333 
19:15	28.2	28.2	28.2	86	24.6	0	0	---	0.00	30.333 
19:20	28.2	28.2	28.2	86	24.6	0	0	---	0.00	30.333 
19:25	28.2	28.2	28.2	86	24.6	0	0	---	0.00	30.333 
19:30	28.2	28.2	28.2	86	24.6	0	1	270	0.00	30.333 
19:35	28.2	28.2	28.2	87	24.8	0	1	270	0.00	30.333 
19:40	28.2	28.2	28.2	87	24.8	0	1	270	0.00	30.333 
19:45	28.2	28.2	28.2	87	24.8	0	0	---	0.00	30.330 
19:50	28.2	28.2	28.2	87	24.8	0	0	---	0.00	30.330 
19:55	28.2	28.2	28.2	88	25.1	0	1	270	0.00	30.330 
20:00	28.2	28.2	28.2	88	25.1	0	1	270	0.00	30.324 
20:05	28.2	28.2	28.2	88	25.1	0	0	---	0.00	30.324 
20:10	28.2	28.2	28.2	88	25.1	0	1	270	0.00	30.324 
20:15	28.2	28.2	28.2	88	25.1	0	0	---	0.00	30.327 
20:20	28.2	28.2	28.2	89	25.4	0	0	---	0.00	30.327 
20:25	28.2	28.2	28.2	89	25.4	0	0	---	0.00	30.327 
20:30	28.2	28.2	28.2	89	25.4	0	0	---	0.00	30.322 
20:35	28.2	28.2	28.2	89	25.4	0	0	---	0.00	30.322 
20:40	28.2	28.2	28.2	90	25.7	0	0	---	0.00	30.322 
20:45	28.2	28.2	28.2	90	25.7	0	0	---	0.00	30.321 
20:50	28.2	28.2	28.2	90	25.7	0	0	---	0.00	30.321 
20:55	28.2	28.2	28.2	90	25.7	0	0	---	0.00	30.321 
21:00	28.2	28.2	28.2	90	25.7	0	0	---	0.00	30.316 
21:05	28.2	28.2	28.2	90	25.7	0	0	---	0.00	30.316 
21:10	28.2	28.2	28.2	90	25.7	0	0	---	0.00	30.316 
21:15	28.2	28.2	28.2	91	25.9	0	0	---	0.00	30.313 
21:20	28.2	28.2	28.2	91	25.9	0	1	270	0.00	30.313 
21:25	28.2	28.2	28.2	91	25.9	0	0	---	0.00	30.313 
21:30	28.2	28.2	28.2	91	25.9	0	0	---	0.00	30.317 
21:35	28.2	28.2	28.2	91	25.9	0	0	---	0.00	30.317 
21:40	28.2	28.2	28.2	91	25.9	0	0	---	0.00	30.317 
21:45	28.2	28.2	28.2	91	25.9	0	0	---	0.00	30.312 
21:50	28.2	28.2	28.2	91	25.9	0	0	---	0.00	30.312 
21:55	28.2	28.2	28.2	91	25.9	0	0	---	0.00	30.312 
22:00	28.2	28.2	28.2	91	25.9	0	0	---	0.00	30.316 
22:05	28.2	28.2	28.2	91	25.9	0	0	---	0.00	30.316 
22:10	28.2	28.2	28.2	91	25.9	0	0	---	0.00	30.316 
22:15	28.2	28.2	28.2	92	26.2	0	0	---	0.00	30.306 
22:20	28.2	28.2	28.2	92	26.2	0	1	270	0.00	30.306 
22:25	28.2	28.2	28.2	92	26.2	0	0	---	0.00	30.306 
22:30	28.2	28.2	28.2	92	26.2	0	0	---	0.00	30.309 
22:35	28.2	28.2	28.2	92	26.2	0	0	---	0.00	30.309 
22:40	28.4	28.4	28.4	92	26.4	0	0	---	0.00	30.309 
22:45	28.4	28.4	28.4	92	26.4	0	0	---	0.00	30.301 
22:50	28.4	28.4	28.4	92	26.4	0	0	---	0.00	30.301 
22:55	28.4	28.4	28.4	92	26.4	0	0	---	0.00	30.301 
23:00	28.4	28.4	28.4	92	26.4	0	1	270	0.00	30.288 
23:05	28.4	28.4	28.4	92	26.4	0	1	270	0.00	30.288 
23:10	28.4	28.4	28.4	92	26.4	0	1	270	0.00	30.288 
23:15	28.4	28.4	28.4	92	26.4	0	1	270	0.00	30.280 
23:20	28.4	28.4	28.4	92	26.4	0	0	---	0.00	30.280 
23:25	28.4	28.4	28.4	92	26.4	0	1	270	0.00	30.280 
23:30	28.4	28.4	28.4	92	26.4	0	0	---	0.00	30.278 
23:35	28.4	28.4	28.4	92	26.4	0	1	270	0.00	30.278 
23:40	28.4	28.4	28.4	92	26.4	0	1	270	0.00	30.278 
23:45	28.4	28.4	28.4	92	26.4	0	1	270	0.00	30.265 
23:50	28.4	28.4	28.4	92	26.4	0	1	270	0.00	30.265 
23:55	28.4	28.4	28.4	92	26.4	0	0	---	0.00	30.265 

CoCoRaHS
IN-AL-39
A2 Web Hosting
Creative Commons License
GoDaddy
search engine by freefind advanced

loaded 2018-11-17 19:29:09 • last modified 2010-11-18 10:43:29
Privacy PolicyDisclaimer
• wx.awcolley.com is powered by PmWiki v.2002016 •
• all content (unless otherwise noted) © 2018 A W Colley